Tri-Cities, TN

6:36 PM EST on December 15, 2019 (GMT -0500)
Tri-Cities Regional Tennessee / Virginia

Weather History for KTRI - October, 2019

Change the Weather History Date:

Tuesday, October 29, 2019

  Actual Average Record
Temperature  
Mean Temperature 62 °F 52 °F  
Max Temperature 77 °F 65 °F 79 °F (1971)
Min Temperature 47 °F 39 °F 24 °F (1976)
Degree Days  
Heating Degree Days 3 13  
Month to date heating degree days 149 256  
Since 1 July heating degree days 149 309  
Cooling Degree Days 0 0  
Month to date cooling degree days 67 9  
Year to date cooling degree days 1452 977  
Growing Degree Days 10 (Base 50)    
Moisture  
Dew Point 51 °F    
Average Humidity 72    
Maximum Humidity 100    
Minimum Humidity 43    
Precipitation  
Precipitation 0.00 in 0.08 in 1.42 in (1970)
Month to date precipitation 4.80 1.95  
Year to date precipitation 46.41 34.39  
Snow  
Snow 0.00 in 0.00 in - ()
Month to date snowfall 0.0 0.1  
Since 1 July snowfall 0.0 0.1  
Since 1 September snowfall 0.0 0.1  
Snow Depth 0.00 in    
Sea Level Pressure  
Sea Level Pressure 30.12 in    
Wind  
Wind Speed 1 mph (SE)    
Max Wind Speed 7 mph    
Max Gust Speed 9 mph    
Visibility 9 miles    
Events      
T = Trace of Precipitation, MM = Missing Value Source: NWS Daily Summary

Daily Weather History Graph

Daily Weather History Graph

Search for Another Location

Airport or City:

Astronomy

Oct. 29, 2019 Rise Set
Actual Time 7:49 AM EDT 6:36 PM EDT
Civil Twilight 7:23 AM EDT 7:02 PM EDT
Nautical Twilight 6:52 AM EDT 7:33 PM EDT
Astronomical Twilight 6:22 AM EDT 8:03 PM EDT
Moon 9:20 AM EDT (10/29) 8:02 PM EDT (10/29)
Length of Visible Light 11h 39m
Length of Day
10h 46m
Waxing Crescent, 3% of the Moon is Illuminated
Oct 29
Waxing Crescent
Nov 4
First Quarter
Nov 12
Full
Nov 19
Last Quarter
Nov 26
New

Hourly Weather History & Observations

Time (EDT) Temp. Dew Point Humidity Pressure Visibility Wind Dir Wind Speed Gust Speed Precip Events Conditions
12:53 AM 53.1 °F 50.0 °F 89% 30.08 in 10.0 mi Calm Calm - N/A   Clear
1:53 AM 51.1 °F 48.9 °F 92% 30.08 in 10.0 mi Calm Calm - N/A   Clear
2:53 AM 50.0 °F 48.0 °F 93% 30.07 in 9.0 mi Calm Calm - N/A   Clear
3:53 AM 48.9 °F 48.0 °F 97% 30.07 in 6.0 mi Calm Calm - N/A   Clear
4:53 AM 48.0 °F 46.0 °F 93% 30.07 in 6.0 mi ESE 3.5 mph - N/A   Clear
5:53 AM 46.9 °F 45.0 °F 93% 30.08 in 6.0 mi Calm Calm - N/A   Clear
6:53 AM 48.0 °F 46.0 °F 93% 30.11 in 10.0 mi Calm Calm - N/A   Partly Cloudy
7:53 AM 46.9 °F 46.0 °F 97% 30.12 in 10.0 mi Calm Calm - N/A   Scattered Clouds
8:53 AM 53.1 °F 51.1 °F 93% 30.14 in 8.0 mi Calm Calm - N/A   Scattered Clouds
9:53 AM 57.9 °F 53.1 °F 84% 30.16 in 10.0 mi Calm Calm - N/A   Scattered Clouds
10:53 AM 64.0 °F 55.0 °F 73% 30.16 in 10.0 mi ESE 4.6 mph - N/A   Scattered Clouds
11:53 AM 70.0 °F 55.0 °F 59% 30.16 in 10.0 mi SE 4.6 mph - N/A   Scattered Clouds
12:53 PM 72.0 °F 53.1 °F 51% 30.15 in 10.0 mi Calm Calm - N/A   Scattered Clouds
1:53 PM 75.0 °F 54.0 °F 48% 30.13 in 10.0 mi Calm Calm - N/A   Scattered Clouds
2:53 PM 75.0 °F 51.1 °F 43% 30.11 in 10.0 mi South 4.6 mph - N/A   Mostly Cloudy
3:53 PM 75.0 °F 51.1 °F 43% 30.11 in 10.0 mi Calm Calm - N/A   Mostly Cloudy
4:53 PM 73.9 °F 53.1 °F 48% 30.11 in 10.0 mi Calm Calm - N/A   Mostly Cloudy
5:53 PM 72.0 °F 51.1 °F 48% 30.12 in 10.0 mi Calm Calm - N/A   Overcast
6:53 PM 66.9 °F 53.1 °F 61% 30.12 in 10.0 mi Calm Calm - N/A   Overcast
7:53 PM 62.1 °F 54.0 °F 75% 30.14 in 10.0 mi Calm Calm - N/A   Overcast
8:53 PM 60.1 °F 53.1 °F 78% 30.16 in 10.0 mi Calm Calm - N/A   Overcast
9:53 PM 59.0 °F 52.0 °F 78% 30.16 in 10.0 mi Calm Calm - N/A   Overcast
10:53 PM 59.0 °F 53.1 °F 81% 30.15 in 10.0 mi Calm Calm - N/A   Overcast
11:53 PM 60.1 °F 54.0 °F 80% 30.14 in 10.0 mi Calm Calm - N/A   Overcast